Temp_Advection
nan nan nan nan nan nan nan nan nan nan nan nan nan nan nan nan nan nan nan nan nan nan nan nan nan nan nan nan nan nan nan nan nan nan nan nan nan nan nan nan nan nan nan nan
nan -1 -2 -1 -0 0 -0 -1 -1 -1 -0 -0 0 0 0 -3 -6 -7 -0 1 -1 -1 -1 -1 -0 -0 0 0 0 0 0 0 0 -0 -0 -0 -0 -0 -0 -0 0 0 0 nan
nan -1 -1 0 0 -0 0 -1 -1 -1 -0 0 0 1 0 -1 -5 -2 -1 -5 -2 -1 -1 -0 -0 -0 0 -0 -0 0 0 0 -0 0 -0 -0 -0 -0 -0 -0 0 0 0 nan
nan -1 0 0 -0 -0 -0 -2 -1 -0 0 0 0 1 -0 -1 -0 -1 -0 -2 1 -1 -1 -0 -0 0 -0 -0 0 0 0 0 0 0 -0 -0 -0 -0 -0 -0 -0 0 0 nan
nan -1 -1 -1 -1 -1 -1 -1 0 -0 -0 -0 1 -0 -0 -0 0 -0 -0 -1 -0 -1 -1 -1 -0 -0 -0 -0 0 0 0 0 0 0 -0 -0 -0 -0 -0 -0 -0 -0 -0 nan
nan -1 -1 -1 -1 -1 -1 0 1 1 1 1 -1 -0 -0 -0 -1 -1 -0 -0 -3 -1 -1 -1 -0 -0 0 -0 -0 -0 0 0 0 -0 -0 -0 -0 -0 -0 -0 -0 0 0 nan
nan -0 -1 -0 -0 0 1 1 1 1 1 -0 -1 -0 -1 -1 -1 -0 -0 -0 -0 -1 -1 -1 -1 -1 -0 -0 -0 -0 0 -0 -0 -0 -0 -0 -0 -0 -1 -0 -0 -0 -0 nan
nan -0 -2 -0 0 -0 0 1 0 -0 -1 -1 -1 -0 -2 -2 -0 -0 -0 -1 -0 -1 -1 -1 -2 -1 -0 -0 -0 -0 -0 -0 0 -0 -0 -1 -0 -0 -1 -0 -0 -0 -0 nan
nan -1 -1 -0 -1 0 -0 -1 -0 -1 -0 -0 -0 -1 -1 0 -0 -0 0 -0 -1 -1 -1 -1 -1 -1 -1 -0 -0 -0 -0 -0 -1 -1 -1 -1 -1 -2 -1 -0 -0 -0 -0 nan
nan -1 -1 -0 0 1 -0 -0 1 0 1 -1 -1 -1 -1 -0 -0 -0 0 0 -0 -0 -0 -1 -1 -1 -1 -0 0 0 -0 -1 -0 0 -2 -2 -1 -1 -1 0 -0 -0 -0 nan
nan -1 -0 0 0 -0 -0 0 -1 0 0 -0 -1 -1 -1 -1 -1 -0 -0 0 0 -0 -0 -1 -1 -1 -1 -0 -0 0 0 0 1 -1 -0 1 0 -1 -0 -0 -1 -0 -0 nan
nan 1 -0 -1 -1 -1 0 0 -0 0 -1 -1 -1 -0 0 -0 -1 -0 0 0 0 0 -1 -0 -1 -1 -1 -1 -1 -0 -0 -0 -0 1 2 1 -0 -1 -0 -0 -1 -0 -0 nan
nan -0 -0 -2 -0 0 1 -0 -0 -1 0 0 -1 -0 0 -0 0 0 0 0 0 0 0 -0 -1 -1 -1 -1 -1 -1 -1 -0 0 1 1 0 -0 0 0 -0 0 1 0 nan
nan -1 -2 -1 -1 -0 0 -0 -0 1 0 -0 -1 0 0 0 0 0 0 0 0 0 0 -0 -1 -0 -1 -1 -1 -1 -1 -1 -1 -1 -0 -1 -1 0 0 0 -0 1 0 nan
nan -1 -2 -2 -1 1 0 -0 0 -0 -0 -1 -1 -0 -0 0 0 0 0 0 1 1 1 0 1 0 0 -0 -1 -1 -1 -1 -1 -1 -2 -1 0 0 0 0 0 -0 -1 nan
nan -1 -1 -1 -1 -0 -0 -0 -0 -0 -1 -1 -0 -0 -0 -0 0 0 -0 -0 -0 -0 0 0 0 0 0 0 -0 0 -1 -1 -1 -1 -1 -0 0 1 0 -0 -1 -1 -0 nan
nan -1 -1 -1 -1 -0 -1 -1 -0 -0 -0 -0 -0 -1 -0 -0 0 0 0 -0 -0 0 0 -0 0 0 0 0 0 0 0 0 -0 -0 0 0 1 0 0 0 0 0 0 nan
nan -1 -1 -1 -0 -1 -2 -0 -0 0 0 -0 -0 -0 0 0 -0 -0 0 0 0 0 0 0 0 0 -0 0 0 0 -0 0 0 0 0 1 0 1 1 0 1 1 0 nan
nan -0 -1 -1 -1 -1 -1 -0 -0 -0 1 1 1 1 -1 -0 0 -0 -0 0 0 0 -0 -0 -0 -0 -0 0 0 -0 0 1 0 0 0 0 1 1 1 1 1 1 1 nan
nan 0 -0 -1 -0 -1 -0 -1 -0 1 2 -4 -2 -0 0 -0 0 -1 -2 -1 -1 -1 -0 -0 -1 -1 -0 0 0 0 1 -0 -1 -0 1 1 1 1 2 2 2 1 2 nan
nan -0 -0 -0 -1 -0 -1 -2 1 3 -1 -2 -3 -1 -1 -1 -2 -1 -0 -1 -1 -1 -0 -0 -0 -0 -1 -0 0 0 0 0 0 1 1 1 1 2 2 2 2 2 1 nan
nan -0 -0 -0 -0 0 -0 -1 -1 -1 -0 -1 -1 -2 -2 -1 -1 -0 -1 -1 -1 -0 -0 -0 -0 -0 -0 -0 -0 1 0 1 1 1 1 1 2 2 2 2 1 1 0 nan
nan -0 -0 -0 -0 0 -0 -0 -0 -0 -0 -0 -0 -1 -1 -1 -1 -1 -1 -1 -2 -1 -0 -0 -0 -0 0 0 1 1 1 0 0 1 1 2 2 2 1 1 1 0 0 nan
nan -2 -0 -1 -1 -1 -0 -1 -0 -1 -0 -0 -0 -0 -1 -1 -1 -1 -1 -1 -2 -2 -1 -1 -1 -0 1 0 0 0 0 0 1 1 1 1 1 1 1 1 0 0 0 nan
nan -0 -0 -1 -1 -0 -0 -0 -0 -0 -0 -0 -0 -0 -0 -1 -1 -1 -0 -0 -1 -1 -1 -1 -1 0 0 0 0 1 0 0 0 1 1 1 0 0 0 0 -0 -0 -0 nan
nan nan nan nan nan nan nan nan nan nan nan nan nan nan nan nan nan nan nan nan nan nan nan nan nan nan nan nan nan nan nan nan nan nan nan nan nan nan nan nan nan nan nan nan
Wind_Speed
30 19 25 30 26 22 23 21 24 20 22 24 22 19 18 15 24 24 32 35 35 34 34 36 33 33 33 34 35 35 32 29 29 24 24 22 19 19 17 14 13 16 15 14
22 28 27 26 25 26 28 25 24 23 23 19 22 20 18 23 37 46 30 31 36 33 36 38 37 37 35 38 36 35 36 33 32 30 25 23 20 20 18 17 17 19 18 15
28 19 27 26 26 28 28 27 24 22 22 19 19 21 19 21 28 16 37 41 36 38 38 39 42 40 39 39 40 38 37 37 36 31 26 23 22 20 20 19 19 21 20 15
27 32 29 27 29 26 26 27 25 25 21 18 20 14 17 19 19 19 20 29 25 38 36 38 40 40 42 40 42 40 38 39 38 35 31 30 30 29 23 22 21 21 18 19
30 26 30 28 28 26 24 24 25 25 23 19 20 16 14 22 22 21 24 31 50 34 39 41 42 43 41 41 41 41 39 39 39 37 32 31 31 27 25 22 21 21 19 16
31 32 25 25 25 26 24 22 23 23 18 17 23 19 19 18 22 20 22 29 33 34 40 42 41 39 40 39 40 39 40 39 40 37 39 32 35 30 27 25 23 24 22 19
29 34 29 27 22 25 22 21 14 14 16 16 21 21 15 20 25 21 22 29 30 36 36 41 44 43 43 42 43 43 43 42 39 42 40 39 35 33 30 26 26 25 24 25
23 26 36 23 31 25 28 25 15 22 17 17 23 25 21 23 20 36 38 35 35 34 37 42 45 44 46 44 46 46 47 43 41 42 43 43 39 35 35 31 28 29 26 22
23 30 31 33 26 26 23 25 24 21 20 16 18 25 22 25 24 21 18 30 34 37 37 43 43 44 46 45 47 48 48 46 42 41 44 41 45 41 37 37 32 26 27 23
28 18 30 33 26 28 27 22 21 17 20 19 19 22 19 22 25 22 16 18 29 35 34 39 44 45 46 49 47 48 47 48 41 42 44 45 44 45 42 39 36 34 27 29
30 24 22 29 31 27 22 21 25 19 16 15 13 14 17 25 22 21 22 25 26 32 37 38 42 44 46 45 44 47 47 47 46 41 44 47 46 44 43 44 39 38 35 28
34 23 21 27 27 30 28 28 25 13 22 15 14 4 12 15 21 17 12 31 23 28 35 36 40 41 42 44 44 47 47 46 49 46 43 45 46 45 44 46 46 42 41 38
12 19 20 26 23 29 32 29 26 22 18 19 14 7 8 11 12 19 18 26 33 23 27 34 38 38 43 45 45 45 48 49 43 44 44 44 46 47 47 46 45 46 44 42
9 10 21 19 21 19 27 29 28 25 17 16 18 7 8 8 4 10 17 14 17 24 23 33 33 39 39 43 46 45 44 44 43 41 42 44 47 48 46 46 46 45 47 46
8 13 19 29 24 22 26 27 29 30 21 22 18 18 15 11 9 9 11 7 15 21 16 21 28 40 43 41 44 44 43 43 42 43 43 44 44 45 46 45 46 46 46 48
19 8 13 17 22 19 18 31 29 29 29 23 24 18 19 16 15 13 17 11 10 11 7 6 7 7 12 28 36 42 43 40 43 44 46 46 44 43 45 45 45 47 49 48
14 12 9 16 17 21 19 16 28 26 24 24 20 17 17 20 17 16 16 11 7 3 0 2 5 9 11 14 23 33 40 39 37 42 45 47 46 47 47 47 48 49 49 48
12 12 9 11 13 18 12 13 13 21 23 23 18 16 13 14 20 17 12 9 6 6 8 8 11 15 15 18 22 25 26 32 37 40 42 39 45 47 48 48 49 49 49 51
10 10 7 6 8 9 13 14 16 9 15 20 21 16 12 14 12 11 7 2 4 8 12 12 14 17 20 22 24 32 32 35 35 36 44 46 42 45 47 50 50 48 48 48
11 10 7 9 6 12 6 14 4 16 9 21 11 0 5 7 4 9 15 13 10 9 6 6 6 7 15 13 21 13 28 32 31 30 34 41 43 48 49 49 49 48 47 46
11 9 11 8 6 3 13 19 10 13 6 19 26 10 4 8 13 12 12 13 11 11 11 10 11 6 12 7 11 13 19 24 28 30 31 32 36 41 45 45 42 44 43 41
11 11 10 11 9 2 25 12 8 9 17 21 22 25 20 18 14 13 15 18 16 14 12 11 11 12 9 15 18 20 20 26 22 25 30 31 28 34 38 39 38 37 38 38
6 4 7 12 11 5 13 8 8 12 13 15 17 16 15 13 15 15 17 20 21 16 10 7 9 8 8 8 11 17 19 19 23 17 26 27 25 29 31 30 36 35 35 36
10 18 8 9 16 11 11 13 11 11 10 13 11 14 14 15 16 20 21 19 25 18 10 10 9 8 6 4 5 8 10 12 17 18 19 21 22 24 26 28 23 28 31 31
12 14 12 15 15 19 18 17 16 16 16 17 13 15 12 14 17 18 17 17 21 19 11 7 7 4 2 3 9 11 12 11 9 14 15 16 16 18 19 21 25 21 20 23
16 14 11 13 21 19 20 21 19 22 20 19 19 17 15 15 19 23 19 16 17 18 14 10 6 3 4 7 7 1 8 11 9 10 10 11 12 14 14 15 14 22 17 17
Wind_Direction
206 217 215 215 223 225 235 223 226 233 224 207 214 198 186 157 10 259 174 170 176 184 189 185 191 189 188 186 193 194 195 196 205 200 203 198 206 215 213 210 219 234 245 234
202 223 217 221 217 228 231 243 235 225 234 214 211 217 197 153 175 226 154 208 174 181 184 187 190 190 192 188 193 198 198 199 203 209 210 199 209 215 220 209 217 232 241 228
213 215 222 219 220 222 223 228 240 244 228 244 207 214 224 184 196 200 193 179 183 178 182 187 186 193 192 191 196 201 200 201 205 207 203 204 209 211 219 213 217 229 236 227
216 222 200 216 220 219 222 225 238 248 248 227 217 230 210 218 212 185 211 186 186 174 182 186 188 193 192 195 195 202 203 205 212 204 202 205 201 207 212 216 218 232 237 220
212 215 221 207 219 215 228 219 226 243 252 257 224 223 228 206 220 196 204 174 197 177 180 184 190 195 196 194 192 197 207 208 213 209 198 207 209 208 209 218 217 225 236 240
227 210 221 217 208 222 218 230 218 225 242 242 241 238 212 219 209 207 192 202 188 185 181 183 188 194 198 196 194 194 207 213 215 212 201 204 212 204 209 211 217 218 226 234
215 227 215 225 218 207 212 216 213 212 215 230 228 244 248 223 192 212 207 194 192 185 183 179 181 189 193 196 195 195 208 214 217 215 209 203 210 211 205 215 208 214 219 226
212 213 218 207 217 201 207 212 213 212 214 219 233 226 233 250 255 202 208 188 189 190 184 179 183 187 190 197 195 196 205 215 217 215 216 207 206 215 206 207 218 210 217 224
205 222 202 228 210 214 199 214 217 227 220 224 217 223 241 223 243 246 220 191 188 189 187 179 181 187 190 193 197 197 205 216 217 216 216 216 214 215 212 208 208 221 213 218
241 219 224 203 215 216 228 197 217 228 240 226 225 218 210 219 213 227 218 226 191 186 183 179 181 187 191 195 199 199 204 215 219 218 218 221 218 221 220 218 214 212 220 214
239 245 227 220 206 207 207 208 209 228 235 239 248 230 199 200 201 203 207 217 201 191 180 179 181 188 194 192 196 201 203 211 217 219 219 221 224 222 223 222 223 219 213 216
212 236 245 231 209 206 212 216 201 220 216 245 270 322 22 171 181 188 217 189 212 200 178 179 180 188 188 193 196 202 205 207 219 221 220 222 225 228 228 225 227 226 223 219
352 230 227 241 213 193 212 206 223 207 233 222 243 230 85 48 155 183 194 191 197 204 197 179 176 186 191 194 197 201 205 210 212 214 219 221 225 228 229 231 228 229 230 230
297 261 240 226 224 202 193 212 207 222 210 227 222 151 129 121 143 156 170 193 201 199 207 176 182 185 192 197 198 200 205 207 209 214 218 222 225 228 230 231 235 232 232 237
274 259 247 237 234 214 194 209 212 211 217 218 215 209 140 145 130 133 117 118 181 177 184 174 190 188 190 196 201 202 204 206 207 212 220 231 233 230 230 232 234 237 238 237
329 282 269 258 251 258 257 197 213 210 221 208 237 215 139 128 132 125 105 88 70 58 133 159 170 170 168 195 195 203 204 207 207 212 220 229 231 233 230 229 230 235 240 241
318 340 307 247 251 253 244 228 198 217 207 220 218 235 143 147 149 145 145 132 125 161 231 262 182 188 203 211 195 199 205 207 210 216 222 224 226 229 231 234 233 233 235 239
296 311 302 271 266 242 239 228 253 219 215 212 222 231 164 148 145 120 118 142 172 213 237 249 239 233 234 221 214 209 208 214 218 218 222 225 223 228 230 232 235 235 234 236
274 289 298 265 240 227 230 229 220 242 203 218 206 230 102 87 109 88 85 110 237 256 268 273 256 250 228 214 212 217 211 216 221 224 224 226 226 227 230 232 236 238 235 233
248 248 278 309 275 217 220 250 224 211 222 0 335 34 117 122 181 76 42 29 12 349 337 328 317 283 245 221 226 215 211 209 221 231 231 231 231 231 231 233 233 237 237 236
205 247 236 239 268 28 324 350 122 204 36 9 11 28 11 54 50 52 29 15 358 334 320 311 301 324 291 265 224 233 232 221 232 244 241 240 237 234 231 230 230 231 232 234
189 186 236 238 241 212 3 18 38 63 39 30 23 29 30 23 22 17 11 1 346 330 318 302 284 281 293 284 255 239 247 236 230 235 240 244 244 236 227 227 226 229 233 238
238 298 212 233 227 37 8 10 34 34 41 23 23 12 0 3 2 4 4 354 336 314 308 322 285 272 270 240 232 239 232 239 240 233 230 237 242 234 225 226 226 226 233 236
323 307 295 286 283 313 328 322 338 0 345 351 349 342 351 357 353 358 354 338 332 348 355 331 318 276 226 205 229 242 228 228 228 219 222 230 229 229 227 219 233 233 230 235
295 307 298 305 278 289 296 301 307 309 314 313 324 316 331 336 340 337 329 320 320 330 339 321 309 276 247 249 215 210 211 200 201 202 213 211 216 224 222 227 218 231 236 229
283 282 281 286 308 311 311 315 288 283 279 277 288 302 308 314 312 311 319 317 309 302 300 299 286 294 233 213 221 221 238 196 171 193 190 197 199 214 220 224 225 220 224 227
Height
1439 1441 1435 1435 1435 1437 1435 1435 1439 1426 1422 1425 1430 1432 1433 1442 1455 1458 1455 1463 1470 1482 1492 1500 1508 1514 1520 1524 1528 1534 1539 1544 1546 1551 1555 1559 1561 1564 1567 1569 1571 1571 1572 1574
1434 1428 1426 1430 1431 1435 1433 1434 1429 1421 1411 1417 1423 1427 1427 1438 1448 1448 1451 1469 1460 1473 1485 1493 1501 1508 1514 1518 1523 1529 1535 1540 1543 1547 1552 1556 1560 1563 1564 1567 1569 1569 1570 1572
1419 1414 1422 1423 1426 1430 1428 1431 1427 1423 1413 1408 1420 1429 1425 1424 1432 1436 1441 1445 1451 1459 1474 1485 1492 1500 1507 1512 1517 1522 1529 1535 1538 1544 1550 1554 1558 1561 1562 1564 1566 1566 1568 1570
1412 1411 1412 1418 1421 1421 1430 1421 1422 1420 1420 1433 1412 1446 1425 1421 1423 1425 1435 1439 1437 1450 1466 1479 1488 1495 1500 1506 1512 1517 1523 1529 1534 1541 1545 1548 1551 1554 1557 1560 1563 1563 1565 1568
1398 1403 1405 1412 1411 1413 1420 1415 1421 1421 1421 1420 1414 1430 1418 1413 1420 1418 1423 1429 1446 1445 1454 1469 1480 1488 1496 1502 1507 1511 1518 1524 1529 1535 1540 1544 1548 1551 1554 1557 1560 1561 1562 1565
1393 1395 1396 1395 1402 1405 1410 1413 1415 1420 1422 1435 1418 1420 1420 1411 1412 1410 1415 1422 1430 1439 1447 1459 1473 1485 1493 1499 1504 1509 1512 1519 1525 1529 1535 1539 1542 1547 1550 1553 1556 1558 1559 1562
1390 1386 1387 1389 1396 1398 1405 1415 1436 1441 1437 1439 1417 1421 1409 1394 1397 1404 1408 1416 1424 1432 1442 1452 1464 1474 1483 1490 1495 1501 1504 1510 1517 1522 1527 1532 1537 1542 1545 1548 1551 1553 1555 1557
1389 1398 1376 1374 1381 1393 1399 1404 1419 1447 1439 1436 1416 1423 1406 1393 1391 1397 1398 1406 1417 1425 1434 1444 1454 1464 1473 1482 1488 1492 1496 1500 1507 1514 1519 1527 1531 1535 1540 1543 1546 1549 1552 1554
1376 1378 1368 1369 1375 1379 1393 1399 1394 1410 1404 1417 1407 1403 1392 1389 1388 1388 1390 1398 1407 1416 1425 1435 1445 1457 1465 1474 1480 1484 1489 1494 1500 1506 1513 1519 1525 1528 1533 1538 1542 1545 1549 1552
1362 1380 1358 1363 1368 1373 1373 1386 1410 1403 1429 1426 1401 1393 1395 1386 1384 1384 1388 1392 1399 1408 1418 1428 1438 1449 1456 1463 1472 1479 1484 1487 1491 1498 1505 1510 1515 1520 1526 1531 1535 1539 1543 1547
1365 1364 1357 1354 1360 1370 1376 1380 1391 1394 1397 1411 1409 1386 1347 1364 1369 1376 1383 1390 1394 1402 1411 1421 1431 1442 1449 1458 1467 1473 1479 1484 1488 1492 1496 1502 1508 1514 1519 1523 1528 1533 1538 1541
1354 1359 1367 1349 1341 1354 1362 1372 1376 1396 1406 1388 1385 1379 1347 1343 1358 1368 1377 1384 1393 1399 1407 1414 1424 1435 1445 1452 1459 1464 1472 1477 1479 1485 1491 1496 1502 1506 1510 1515 1520 1525 1530 1535
1371 1355 1365 1362 1341 1342 1354 1361 1368 1375 1381 1393 1400 1385 1353 1356 1359 1367 1374 1380 1390 1397 1403 1410 1418 1429 1437 1444 1450 1456 1462 1468 1477 1482 1487 1492 1495 1497 1502 1506 1513 1518 1523 1527
1382 1368 1352 1352 1343 1333 1356 1359 1363 1368 1385 1388 1381 1378 1369 1366 1368 1369 1375 1381 1388 1394 1401 1406 1413 1421 1430 1437 1443 1449 1456 1464 1471 1477 1481 1484 1487 1491 1496 1501 1505 1510 1515 1517
1372 1371 1356 1344 1334 1329 1343 1354 1356 1363 1365 1381 1370 1371 1370 1369 1372 1373 1379 1384 1387 1393 1398 1403 1409 1414 1421 1428 1436 1443 1450 1456 1463 1468 1472 1473 1479 1485 1490 1494 1498 1502 1505 1507
1383 1373 1360 1353 1339 1340 1344 1340 1348 1353 1359 1363 1362 1362 1360 1368 1374 1379 1385 1390 1393 1397 1401 1406 1410 1416 1421 1426 1430 1436 1443 1450 1455 1460 1462 1466 1471 1476 1481 1485 1489 1492 1494 1499
1399 1385 1375 1369 1357 1350 1354 1336 1340 1347 1351 1357 1367 1358 1357 1368 1374 1381 1388 1393 1399 1403 1406 1409 1412 1416 1420 1423 1428 1432 1437 1443 1449 1452 1455 1459 1463 1466 1470 1475 1479 1481 1486 1491
1408 1401 1388 1380 1366 1383 1346 1333 1337 1341 1345 1349 1354 1353 1360 1367 1375 1383 1389 1396 1401 1405 1408 1411 1413 1415 1417 1420 1425 1429 1433 1437 1441 1445 1449 1452 1456 1458 1462 1466 1469 1474 1477 1480
1405 1404 1396 1383 1375 1359 1349 1341 1344 1349 1348 1346 1353 1354 1363 1373 1379 1387 1393 1399 1404 1408 1410 1412 1413 1413 1415 1418 1421 1422 1425 1428 1432 1437 1441 1445 1448 1452 1454 1455 1459 1464 1469 1472
1402 1402 1406 1390 1384 1382 1355 1341 1339 1342 1367 1361 1359 1362 1366 1375 1389 1394 1398 1401 1405 1408 1408 1409 1408 1408 1411 1413 1416 1418 1420 1423 1426 1429 1432 1437 1441 1443 1445 1447 1452 1457 1460 1464
1405 1406 1405 1400 1394 1365 1367 1353 1343 1366 1401 1383 1375 1372 1375 1381 1393 1399 1402 1404 1406 1407 1408 1407 1407 1407 1407 1408 1410 1411 1416 1419 1420 1422 1427 1430 1432 1435 1438 1443 1446 1450 1454 1458
1398 1409 1408 1400 1399 1404 1379 1368 1377 1393 1395 1393 1391 1391 1391 1393 1397 1400 1402 1404 1405 1406 1405 1405 1405 1406 1406 1405 1407 1410 1411 1414 1416 1419 1420 1422 1425 1428 1433 1436 1441 1444 1448 1451
1410 1400 1400 1399 1391 1382 1395 1397 1400 1397 1399 1401 1403 1403 1403 1402 1402 1404 1404 1405 1406 1406 1405 1403 1403 1403 1404 1404 1406 1406 1407 1409 1411 1414 1415 1417 1420 1422 1427 1430 1434 1438 1441 1445
1420 1410 1407 1406 1394 1395 1401 1401 1402 1403 1405 1406 1409 1409 1409 1409 1407 1402 1403 1407 1409 1407 1405 1404 1403 1403 1401 1402 1404 1404 1404 1404 1406 1408 1410 1413 1416 1419 1422 1427 1428 1432 1435 1439
1420 1417 1413 1408 1401 1399 1403 1405 1406 1408 1409 1408 1408 1411 1411 1411 1411 1413 1415 1416 1412 1409 1406 1405 1404 1403 1401 1400 1400 1399 1399 1400 1402 1404 1406 1409 1413 1416 1419 1422 1426 1429 1432 1436
1418 1416 1414 1408 1406 1406 1404 1406 1406 1404 1409 1410 1410 1409 1411 1413 1416 1416 1416 1415 1413 1411 1409 1406 1405 1403 1402 1400 1399 1399 1397 1398 1400 1402 1405 1408 1411 1414 1416 1419 1422 1426 1430 1430